Regional Weather Roundup
Issued by NWS

Home | Current Version | Previous Version | Graphics & Text | Print | Product List | Glossary On
Versions: 1 2 3 4 5 6 7 8 9 10 11 12 13 14 15 16 17 18 19 20 21 22 23 24 25 26 27 28 29 30 31 32 33 34 35 36 37 38 39 40 41 42 43 44 45 46 47 48 49 50
000
ASUS43 KOAX 231310
RWRNE

WEATHER ROUNDUP FOR NEBRASKA
NATIONAL WEATHER SERVICE OMAHA NE
700 AM CST THU FEB 23 2017

NOTES: SATELLITE DATA IS BEING USED TO AUGMENT CLOUD COVER ABOVE
       12000 FEET.
       "FAIR" INDICATES FEW OR NO CLOUDS BELOW 12,000 FEET WITH NO
       SIGNIFICANT WEATHER AND/OR OBSTRUCTIONS TO VISIBILITY.

  * THESE STATIONS DO NOT REPORT WEATHER SUCH AS RAIN...SNOW OR FOG.

NEZ001>004-019>022-054>056-231400-
NEBRASKA PANHANDLE

CITY           SKY/WX    TMP DP  RH WIND       PRES   REMARKS
SCOTTSBLUFF    LGT SNOW  28  25  88 E16       29.71F VSB 1   WCI  16
ALLIANCE       SNOW      27  25  92 NE16      29.72S VSB 1/2 WCI  15
CHADRON        LGT SNOW  28  26  92 NE14      29.78F VSB 3/4 WCI  17
KIMBALL        LGT SNOW  30  30 100 E16G22    29.65F WCI  19
SIDNEY         CLOUDY    29  28  96 NE18      29.67F FOG     WCI  16
$$

NEZ057>060-069>072-079>082-231400-
SOUTHWEST NEBRASKA

CITY           SKY/WX    TMP DP  RH WIND       PRES   REMARKS
NORTH PLATTE   CLOUDY    33  29  85 NE18G28   29.71F WCI  22
IMPERIAL       CLOUDY    33  32  96 E18       29.66F FOG     WCI  22
LEXINGTON      CLOUDY    35  31  87 NE18G25   29.72R WCI  24
MCCOOK         CLOUDY    37  35  92 NE24      29.67F WCI  26
OGALLALA       CLOUDY    33  32  94 NE17G23   29.70S WCI  23
$$

NEZ005>010-023>029-035>040-094-231400-
NORTH CENTRAL NEBRASKA

CITY           SKY/WX    TMP DP  RH WIND       PRES   REMARKS
VALENTINE      LGT SNOW  27  24  89 NE16      29.83S VSB 1   WCI  15
AINSWORTH      LGT SNOW  28  28 100 NE17      29.81F WCI  16
BROKEN BOW     CLOUDY    30  29  96 NE15G24   29.75F FOG     WCI  19
O`NEILL        CLOUDY    30  29  94 N14       29.84F WCI  20
ORD            FOG       31  29  92 NE13      29.78F VSB 3/4 WCI  21
THEDFORD       CLOUDY    30  29  99 NE14G21   29.77F FOG     WCI  19
$$

NEZ041-046>049-061>064-073>077-083>087-231400-
SOUTH CENTRAL NEBRASKA

CITY           SKY/WX    TMP DP  RH WIND       PRES   REMARKS
GRAND ISLAND   CLOUDY    33  33 100 NE20      29.76F WCI  21
AURORA         CLOUDY    35  34  96 NE17G24   29.76S WCI  24
HASTINGS       CLOUDY    36  34  92 NE18G29   29.74F WCI  26
HEBRON         CLOUDY    40  36  85 NE17G25   29.73F WCI  31
HOLDREGE       CLOUDY    35  32  88 NE24G32   29.71S WCI  23
KEARNEY *      CLOUDY    34  28  80 NE20      29.74S WCI  22
YORK           CLOUDY    36  34  93 NE18      29.76S WCI  25
$$

NEZ011>018-030>034-042>045-231400-
NORTHEAST NEBRASKA

CITY           SKY/WX    TMP DP  RH WIND       PRES   REMARKS
NORFOLK        CLOUDY    32  30  92 NE15      29.83R WCI  22
ALBION         CLOUDY    33  32  94 NE13      29.82S FOG     WCI  24
BLAIR          CLOUDY    36  34  91 N12G17    29.80S WCI  28
FREMONT        CLOUDY    36  34  93 NE12G17   29.82S WCI  28
TEKAMAH        CLOUDY    37  32  82 NE14      29.84F WCI  28
WAYNE          CLOUDY    33  32  94 NE14      29.85R WCI  24
$$

NEZ050>053-065>068-078-088>093-231400-
SOUTHEAST NEBRASKA

CITY           SKY/WX    TMP DP  RH WIND       PRES   REMARKS
LINCOLN        CLOUDY    39  35  86 NE15G23   29.79F WCI  31
OMAHA EPPLEY   CLOUDY    37  32  82 NE12      29.82R WCI  29
BEATRICE       CLOUDY    42  38  87 NE10      29.77R
FALLS CITY     CLOUDY    42  37  82 NE10      29.73F
NEBRASKA CITY  CLOUDY    39  36  91 NE14G22   29.76F WCI  30
PLATTSMOUTH    CLOUDY    38  34  85 N12G18    29.79R WCI  30
$$

NEZ044-045-051>053-067-231400-
OMAHA AREA

CITY           SKY/WX    TMP DP  RH WIND       PRES   REMARKS
OMAHA EPPLEY   CLOUDY    37  32  82 NE12      29.82R WCI  29
BLAIR          CLOUDY    36  34  91 N12G17    29.80S WCI  28
FREMONT        CLOUDY    36  34  93 NE12G17   29.82S WCI  28
MILLARD        CLOUDY    39  36  87 NE8G17    29.81S WCI  34
OFFUTT AFB     CLOUDY    37  33  85 N14       29.80S WCI  28
PLATTSMOUTH    CLOUDY    38  34  85 N12G18    29.79R WCI  30
WAHOO          CLOUDY    37  34  90 N16       29.80F WCI  27
$$




USA.gov is the U.S. government's official web portal to all federal, state and local government web resources and services.